Stanton, MN

6:05 AM CDT on March 30, 2017 (GMT -0500)
Stanton

Weather History for KSYN - August, 2014

Change the Weather History Date:

Wednesday, August 20, 2014

  Actual Average (KLVN) Record (KLVN)
Temperature  
Mean Temperature 71 °F -  
Max Temperature 83 °F 78 °F 93 °F (1955)
Min Temperature 59 °F 56 °F 37 °F (1950)
Cooling Degree Days 6    
Growing Degree Days 21 (Base 50)    
Moisture  
Dew Point 64 °F    
Average Humidity 78    
Maximum Humidity 94    
Minimum Humidity 49    
Precipitation  
Precipitation 0.00 in - - ()
Sea Level Pressure  
Sea Level Pressure 29.83 in    
Wind  
Wind Speed 2 mph (ESE)    
Max Wind Speed 10 mph    
Max Gust Speed -    
Visibility 8 miles    
Events Fog    
Averages and records for this station are not official NWS values.
T = Trace of Precipitation, MM = Missing Value Source: NWS Daily Summary

Daily Weather History Graph

Daily Weather History Graph

Search for Another Location

Airport or City:

Trip Planner

Search our weather history database for the weather conditions in past years. The results will help you decide how hot, cold, wet, or windy it might be!

Date:

Astronomy

Aug. 20, 2014 Rise Set
Actual Time 6:20 AM CDT 8:09 PM CDT
Civil Twilight 5:49 AM CDT 8:40 PM CDT
Nautical Twilight 5:11 AM CDT 9:17 PM CDT
Astronomical Twilight 4:30 AM CDT 9:58 PM CDT
Moon 1:56 AM CDT (8/20) 4:58 PM CDT (8/20)
Length of Visible Light 14h 50m
Length of Day
13h 48m
Waning Crescent, 20% of the Moon is Illuminated
Aug 20
Waning Crescent
Aug 25
New
Sep 2
First Quarter
Sep 8
Full
Sep 15
Last Quarter

Hourly Weather History & Observations

Time (CDT) Temp. Heat Index Dew Point Humidity Pressure Visibility Wind Dir Wind Speed Gust Speed Precip Events Conditions
12:11 AM 65.1 °F - 62.8 °F 92% 29.79 in 7.0 mi Calm Calm - N/A   Clear
12:31 AM 64.8 °F - 62.6 °F 93% 29.79 in 7.0 mi South 3.5 mph - N/A   Clear
12:51 AM 64.4 °F - 62.4 °F 93% 29.79 in 7.0 mi Calm Calm - N/A   Clear
1:11 AM 64.0 °F - 61.9 °F 93% 29.79 in 5.0 mi Calm Calm - N/A   Clear
1:31 AM 64.2 °F - 62.1 °F 93% 29.79 in 7.0 mi SSW 3.5 mph - N/A   Clear
1:51 AM 63.9 °F - 61.7 °F 93% 29.79 in 7.0 mi Calm Calm - N/A   Clear
2:11 AM 63.7 °F - 61.5 °F 93% 29.80 in 7.0 mi Calm Calm - N/A   Clear
2:31 AM 63.1 °F - 61.0 °F 93% 29.80 in 5.0 mi Calm Calm - N/A   Clear
2:51 AM 63.9 °F - 61.9 °F 93% 29.80 in 7.0 mi Calm Calm - N/A   Clear
3:11 AM 63.1 °F - 61.0 °F 93% 29.80 in 5.0 mi Calm Calm - N/A   Clear
3:31 AM 62.6 °F - 60.3 °F 92% 29.80 in 3.0 mi Calm Calm - N/A   Clear
3:51 AM 62.4 °F - 60.4 °F 93% 29.81 in 3.0 mi Calm Calm - N/A   Clear
4:11 AM 61.7 °F - 59.5 °F 93% 29.81 in 4.0 mi Calm Calm - N/A   Clear
4:31 AM 61.3 °F - 59.4 °F 93% 29.81 in 3.0 mi Calm Calm - N/A   Clear
4:51 AM 61.0 °F - 59.2 °F 94% 29.81 in 5.0 mi Calm Calm - N/A   Clear
5:11 AM 61.0 °F - 59.2 °F 94% 29.81 in 0.8 mi Calm Calm - N/A   Mist
5:31 AM 60.3 °F - 58.5 °F 94% 29.81 in 0.8 mi Calm Calm - N/A   Mostly Cloudy
5:51 AM 60.1 °F - 58.3 °F 94% 29.80 in 0.8 mi Calm Calm - N/A   Mostly Cloudy
6:11 AM 60.3 °F - 58.5 °F 94% 29.81 in 0.2 mi Calm Calm - N/A Fog Fog
6:31 AM 59.9 °F - 58.1 °F 94% 29.81 in 0.5 mi Calm Calm - N/A Fog Fog
6:51 AM 60.1 °F - 58.3 °F 94% 29.82 in 2.5 mi Calm Calm - N/A   Scattered Clouds
7:11 AM 61.0 °F - 59.2 °F 94% 29.84 in 2.5 mi SSW 3.5 mph - N/A   Clear
7:31 AM 61.9 °F - 60.1 °F 94% 29.85 in 3.0 mi Calm Calm - N/A   Clear
7:51 AM 62.6 °F - 60.8 °F 94% 29.86 in 1.0 mi Calm Calm - N/A   Mostly Cloudy
8:11 AM 64.0 °F - 62.2 °F 94% 29.86 in 3.0 mi Calm Calm - N/A   Mostly Cloudy
8:31 AM 65.7 °F - 63.9 °F 94% 29.85 in 5.0 mi Calm Calm - N/A   Scattered Clouds
8:51 AM 67.6 °F - 65.7 °F 93% 29.84 in 7.0 mi NE 5.8 mph - N/A   Clear
9:11 AM 69.4 °F - 65.7 °F 88% 29.85 in 10.0 mi Calm Calm - N/A   Clear
9:31 AM 71.6 °F - 66.0 °F 82% 29.85 in 10.0 mi Calm Calm - N/A   Clear
9:50 AM 73.4 °F - 66.0 °F 78% 29.85 in 10.0 mi East 4.6 mph - N/A   Clear
10:11 AM 75.0 °F - 66.0 °F 73% 29.86 in 10.0 mi Calm Calm - N/A   Clear
10:31 AM 76.1 °F - 66.2 °F 71% 29.86 in 10.0 mi South 3.5 mph - N/A   Scattered Clouds
10:51 AM 75.9 °F - 66.2 °F 72% 29.86 in 10.0 mi South 4.6 mph - N/A   Scattered Clouds
11:11 AM 77.2 °F - 66.0 °F 68% 29.86 in 10.0 mi SE 5.8 mph - N/A   Scattered Clouds
11:31 AM 77.7 °F - 66.2 °F 68% 29.85 in 10.0 mi East 8.1 mph - N/A   Scattered Clouds
11:51 AM 78.3 °F - 66.4 °F 67% 29.83 in 10.0 mi East 10.4 mph - N/A   Scattered Clouds
12:11 PM 78.6 °F - 66.7 °F 67% 29.84 in 10.0 mi East 6.9 mph - N/A   Scattered Clouds
12:31 PM 78.4 °F - 66.9 °F 68% 29.85 in 10.0 mi East 6.9 mph - N/A   Scattered Clouds
12:51 PM 79.2 °F - 66.2 °F 64% 29.86 in 10.0 mi East 5.8 mph - N/A   Scattered Clouds
1:11 PM 79.7 °F - 66.2 °F 63% 29.86 in 10.0 mi Calm Calm - N/A   Scattered Clouds
1:31 PM 79.7 °F - 66.4 °F 64% 29.86 in 10.0 mi South 4.6 mph - N/A   Mostly Cloudy
1:51 PM 81.1 °F 82.8 °F 64.6 °F 57% 29.85 in 10.0 mi SSE 3.5 mph - N/A   Scattered Clouds
2:11 PM 81.0 °F 82.7 °F 64.8 °F 58% 29.85 in 10.0 mi SSW 3.5 mph - N/A   Scattered Clouds
2:31 PM 81.5 °F 83.3 °F 65.1 °F 57% 29.84 in 10.0 mi SSE 4.6 mph - N/A   Scattered Clouds
2:51 PM 81.3 °F 82.9 °F 64.2 °F 56% 29.85 in 10.0 mi South 3.5 mph - N/A   Scattered Clouds
3:10 PM 81.9 °F 83.7 °F 65.3 °F 57% 29.84 in 10.0 mi SE 4.6 mph - N/A   Scattered Clouds
3:31 PM 83.3 °F 84.4 °F 63.3 °F 51% 29.84 in 10.0 mi South 5.8 mph - N/A   Clear
3:51 PM 82.8 °F 83.4 °F 61.9 °F 49% 29.83 in 10.0 mi Calm Calm - N/A   Clear
4:11 PM 82.4 °F 83.5 °F 63.0 °F 52% 29.83 in 10.0 mi SSE 3.5 mph - N/A   Clear
4:31 PM 82.4 °F 83.7 °F 63.5 °F 53% 29.83 in 10.0 mi Calm Calm - N/A   Clear
4:51 PM 82.4 °F 83.7 °F 63.9 °F 53% 29.83 in 10.0 mi Calm Calm - N/A   Clear
5:11 PM 82.8 °F 84.9 °F 66.0 °F 57% 29.83 in 10.0 mi Calm Calm - N/A   Clear
5:31 PM 82.4 °F 83.9 °F 64.2 °F 54% 29.84 in 10.0 mi ESE 3.5 mph - N/A   Scattered Clouds
5:51 PM 81.7 °F 83.5 °F 65.1 °F 57% 29.83 in 10.0 mi ESE 4.6 mph - N/A   Scattered Clouds
6:11 PM 81.3 °F 83.5 °F 66.2 °F 60% 29.84 in 10.0 mi ESE 3.5 mph - N/A   Clear
6:31 PM 80.4 °F 83.4 °F 69.1 °F 68% 29.84 in 10.0 mi East 6.9 mph - N/A   Clear
6:51 PM 78.8 °F - 68.9 °F 72% 29.84 in 10.0 mi East 6.9 mph - N/A   Mostly Cloudy
7:11 PM 78.3 °F - 68.5 °F 72% 29.84 in 10.0 mi East 6.9 mph - N/A   Scattered Clouds
7:31 PM 77.0 °F - 68.5 °F 75% 29.84 in 10.0 mi East 6.9 mph - N/A   Scattered Clouds
7:51 PM 75.7 °F - 68.5 °F 78% 29.84 in 10.0 mi East 5.8 mph - N/A   Scattered Clouds
8:11 PM 75.2 °F - 68.5 °F 80% 29.84 in 10.0 mi East 6.9 mph - N/A   Clear
8:31 PM 74.5 °F - 68.4 °F 81% 29.84 in 10.0 mi East 5.8 mph - N/A   Clear
8:51 PM 74.5 °F - 68.0 °F 80% 29.85 in 10.0 mi ESE 5.8 mph - N/A   Clear
9:11 PM 74.8 °F - 67.3 °F 77% 29.85 in 10.0 mi ESE 4.6 mph - N/A   Clear
9:31 PM 74.5 °F - 67.1 °F 78% 29.85 in 10.0 mi ESE 4.6 mph - N/A   Clear
9:51 PM 74.5 °F - 66.7 °F 77% 29.86 in 10.0 mi East 4.6 mph - N/A   Clear
10:11 PM 72.9 °F - 67.1 °F 82% 29.86 in 10.0 mi ESE 4.6 mph - N/A   Clear
10:31 PM 73.4 °F - 66.7 °F 80% 29.86 in 10.0 mi East 4.6 mph - N/A   Clear
10:51 PM 72.9 °F - 67.1 °F 82% 29.86 in 10.0 mi East 3.5 mph - N/A   Clear
11:11 PM 72.5 °F - 66.9 °F 83% 29.86 in 10.0 mi East 5.8 mph - N/A   Clear
11:31 PM 71.8 °F - 66.9 °F 85% 29.86 in 10.0 mi East 4.6 mph - N/A   Clear
11:51 PM 72.1 °F - 66.9 °F 84% 29.86 in 10.0 mi ESE 4.6 mph - N/A   Clear